Home   Weather   Lehrte   Past weeks
Flag for Germany

Past Weather in Lehrte, Lower Saxony, Germany — Yesterday and Last 2 Weeks

Now
57 °F

Broken clouds.


Feels Like: 54 °F
Forecast: 68 / 46 °F
Wind: 14 mph from Northwest

Location: Hannover

Current Time: May 25, 2020 at 4:52:16 pm

Latest Report: May 25, 2020 at 3:50 pm


Visibility: N/A

Pressure: 30.45 "Hg

Humidity: 67%

Dew Point: 46 °F

Location of LehrteLocation

Past Weather in Lehrte — Graph

°F

Lehrte Temperature Yesterday

Maximum temperature yesterday: 63 °F (at 1:20 pm)
Minimum temperature yesterday: 48 °F (at 1:20 am)
Average temperature yesterday: 55 °F

High & Low Weather Summary for the Past Weeks

 TemperatureHumidityPressure
High73 °F (May 21, 3:20 pm)100% (May 14, 2:50 am)30.48 "Hg (May 14, 2:50 am)
Low32 °F (May 15, 3:50 am)36% (May 14, 3:20 pm)29.65 "Hg (May 10, 3:20 pm)
Average54 °F67%30.10 "Hg
* Reported May 10 3:20 pm — May 25 3:50 pm, Lehrte. Weather by CustomWeather, © 2020

Note: Actual official high and low records may vary slightly from our data, if they occured in-between our weather recording intervals... More about our weather records

Lehrte Weather History for the Previous 24 Hours

Scroll right to see more
 ConditionsComfort  
Time TempWeatherWind HumidityBarometerVisibility
3:50 pm
Mon, May 25
57 °FBroken clouds.14 mph67%30.45 "HgN/A
3:20 pm57 °FBroken clouds.12 mph67%30.48 "HgN/A
2:50 pm57 °FBroken clouds.13 mph63%30.45 "HgN/A
2:20 pm55 °FBroken clouds.15 mph67%30.45 "HgN/A
1:50 pm55 °FPartly sunny.15 mph67%30.45 "HgN/A
1:20 pm55 °FPartly sunny.15 mph67%30.45 "HgN/A
12:50 pm57 °FPartly sunny.12 mph67%30.45 "HgN/A
12:20 pm55 °FPartly sunny.15 mph72%30.45 "HgN/A
11:50 am55 °FPartly sunny.16 mph67%30.45 "HgN/A
11:20 am55 °FPartly sunny.14 mph67%30.42 "HgN/A
10:50 am55 °FPartly sunny.17 mph67%30.42 "HgN/A
10:20 am54 °FPartly sunny.16 mph72%30.42 "HgN/A
9:50 am54 °FPartly sunny.15 mph72%30.42 "HgN/A
9:20 am54 °FPartly sunny.16 mph72%30.39 "HgN/A
8:50 am54 °FPartly sunny.14 mph72%30.39 "HgN/A
8:20 am54 °FScattered clouds.15 mph77%30.39 "HgN/A
7:50 am54 °FScattered clouds.20 mph77%30.36 "HgN/A
7:20 am54 °FPartly sunny.14 mph77%30.36 "HgN/A
6:50 am54 °FSprinkles. Broken clouds.13 mph82%30.36 "HgN/A
6:20 am54 °FScattered clouds.13 mph88%30.36 "HgN/A
5:50 am54 °FSprinkles. Scattered clouds.13 mph88%30.36 "HgN/A
5:20 am54 °FBroken clouds.12 mph88%30.36 "HgN/A
4:50 am54 °FPartly cloudy.12 mph88%30.36 "HgN/A
4:20 am54 °FPassing clouds.13 mph88%30.33 "HgN/A
3:50 am54 °FPassing clouds.12 mph88%30.33 "HgN/A
3:20 am54 °FPassing clouds.12 mph88%30.33 "HgN/A
2:50 am54 °FSprinkles. Passing clouds.13 mph94%30.33 "HgN/A
2:20 am52 °FPassing clouds.13 mph100%30.33 "HgN/A
1:50 am54 °FPassing clouds.13 mph94%30.33 "HgN/A
1:20 am54 °FPassing clouds.13 mph94%30.33 "HgN/A
12:50 am52 °FPassing clouds.8 mph100%30.33 "HgN/A
12:20 am52 °FPassing clouds.7 mph100%30.33 "HgN/A
11:50 pm
Sun, May 24
52 °FPassing clouds.8 mph100%30.33 "HgN/A
11:20 pm52 °FPassing clouds.6 mph94%30.33 "HgN/A
10:50 pm54 °FPassing clouds.9 mph88%30.33 "HgN/A
10:20 pm54 °FPassing clouds.10 mph88%30.33 "HgN/A
9:50 pm55 °FPassing clouds.12 mph88%30.30 "HgN/A
9:20 pm55 °FScattered clouds.10 mph88%30.30 "HgN/A
8:50 pm55 °FPassing clouds.12 mph88%30.30 "HgN/A
8:20 pm55 °FPassing clouds.12 mph88%30.30 "HgN/A
7:50 pm55 °FPartly sunny.10 mph94%30.27 "HgN/A
7:20 pm55 °FScattered showers. Partly sunny.12 mph94%30.27 "HgN/A
6:50 pm55 °FRain showers. Partly sunny.10 mph94%30.30 "Hg5 mi
6:20 pm57 °FScattered showers. Partly sunny.8 mph88%30.27 "HgN/A
5:50 pm55 °FSprinkles. Scattered clouds.6 mph94%30.27 "HgN/A
5:20 pm54 °FSprinkles. Broken clouds.9 mph100%30.27 "HgN/A
4:50 pm54 °FSprinkles. Passing clouds.13 mph94%30.30 "HgN/A
4:20 pm54 °FSprinkles. Partly sunny.12 mph88%30.27 "HgN/A
Weather by CustomWeather, © 2020

See weather overview

Advertising